(2020 GN1) |
Classification: Apollo [NEO] SPK-ID: 54016472 |
[ hide orbit diagram ]
For accurate long-term ephemerides, please instead use our Horizons system.This orbit viewer was implemented using two-body methods, and hence should not be used for determining accurate long-term trajectories (over several years or decades) or planetary encounter circumstances.
Orbital Elements at Epoch 2458943.5 (2020-Apr-04.0) TDB
Reference: JPL 1 (heliocentric ecliptic J2000)
Element | Value | Uncertainty (1-sigma) | Units |
e | .2652671149590787 | 0.00095095 | |
a | 1.300249329775873 | 0.0014725 | au |
q | .9553359413387519 | 0.00015526 | au |
i | 1.789437961554111 | 0.0052347 | deg |
node | 188.3758385575172 | 0.0015705 | deg |
peri | 51.59522293113049 | 0.013903 | deg |
M | 333.8268734880611 | 0.050148 | deg |
tp | 2458982.872363714817 (2020-May-13.37236371) | 0.0094638 | TDB |
period | 541.5497812563059 1.48 | 0.91997 0.002519 | d yr |
n | .664758831893274 | 0.0011293 | deg/d |
Q | 1.645162718212995 | 0.0018632 | au |
|
| | Orbit Determination Parameters
Additional Information
|
[ show covariance matrix ]
Physical Parameter Table
Parameter |
Symbol |
Value |
Units |
Sigma |
Reference |
Notes |
absolute magnitude |
H |
27.128 |
|
.83526 |
1 |
autocmod 2.8 |
|
[ show close-approach data ]
|